Observations for Trim Patrick St
| Time | AQI | Temp °C | Hum % | Pres Pa | CO μg/m³ | H₂S μg/m³ | NO μg/m³ | NO₂ μg/m³ | O₃ μg/m³ | SO₂ μg/m³ | PM1 μg/m³ | PM2.5 μg/m³ | PM10 μg/m³ |
|---|---|---|---|---|---|---|---|---|---|---|---|---|---|
| Monday 3 August 2026 | |||||||||||||
| 04:33 | 1 | 15.4 | 79 | 38,460 | 0.21 | 0 | 1.81 | 13.81 | 37.34 | 0 | 4.57 | 8.09 | 8.9 |
| 04:28 | 1 | 15.4 | 79 | 38,460 | 0.19 | 0 | 1.96 | 11.12 | 42.67 | 0 | 5.43 | 8.8 | 9.68 |
| 04:27 | 1 | 15.4 | 79 | 38,460 | 0.2 | 0 | 1.89 | 18.82 | 36.65 | 0 | 5.43 | 9.5 | 10.45 |
| 04:26 | 1 | 15.4 | 79 | 38,460 | 0.19 | 0 | 1.92 | 14.56 | 33.04 | 0 | 3.71 | 8.09 | 8.9 |
| 04:25 | 1 | 15.4 | 79 | 38,460 | 0.2 | 0 | 1.79 | 12.21 | 37.24 | 0 | 3.71 | 7.39 | 8.13 |
| 04:24 | 1 | 15.5 | 79 | 38,460 | 0.19 | 0 | 1.69 | 11.76 | 44.77 | 0 | 6.29 | 10.21 | 11.23 |
| 04:23 | 1 | 15.4 | 79 | 38,460 | 0.2 | 0 | 1.69 | 20.83 | 29.47 | 0 | 4.57 | 8.1 | 8.91 |
| 04:22 | 1 | 15.5 | 79 | 38,460 | 0.19 | 0 | 1.77 | 12.65 | 34.68 | 0 | 4.57 | 8.1 | 8.91 |
| 04:21 | 1 | 15.5 | 79 | 38,460 | 0.19 | 0 | 1.72 | 12.93 | 38.47 | 0 | 4.57 | 8.1 | 8.91 |
| 04:20 | 1 | 15.4 | 79 | 38,460 | 0.19 | 0 | 1.76 | 11.77 | 38.37 | 0 | 4.57 | 8.8 | 9.68 |
| 04:19 | 1 | 15.5 | 79 | 38,460 | 0.2 | 0 | 1.73 | 12.52 | 37.65 | 0 | 4.57 | 8.1 | 8.91 |
| 04:18 | 1 | 15.5 | 79 | 38,460 | 0.19 | 0 | 1.81 | 11.98 | 37.59 | 0 | 4.57 | 7.4 | 8.14 |
| 04:17 | 1 | 15.4 | 79 | 38,460 | 0.19 | 0 | 1.78 | 14.28 | 39.26 | 0 | 3.71 | 7.41 | 8.15 |
| 04:16 | 1 | 15.4 | 79 | 38,460 | 0.2 | 0 | 1.89 | 13.4 | 35.5 | 0 | 4.57 | 7.41 | 8.16 |
| 04:15 | 1 | 15.4 | 79 | 38,460 | 0.19 | 0 | 1.88 | 10.87 | 41.58 | 0 | 5.43 | 8.81 | 9.69 |
| 04:14 | 1 | 15.4 | 79 | 38,460 | 0.2 | 0 | 1.9 | 12.88 | 34.72 | 0 | 4.57 | 8.12 | 8.93 |
| 04:13 | 1 | 15.5 | 79 | 38,460 | 0.19 | 0 | 1.79 | 20.47 | 29.45 | 0 | 5.43 | 8.82 | 9.7 |
| 04:12 | 1 | 15.5 | 79 | 38,460 | 0.19 | 0 | 1.88 | 10.29 | 42.51 | 0 | 4.57 | 8.12 | 8.93 |
| 04:11 | 1 | 15.4 | 79 | 38,460 | 0.18 | 0 | 1.85 | 9.57 | 44.69 | 0 | 4.57 | 8.12 | 8.93 |
| 04:10 | 1 | 15.4 | 79 | 38,460 | 0.19 | 0 | 1.91 | 10.28 | 45.51 | 0 | 4.57 | 8.12 | 8.93 |